{"data":{"norad_id":63380,"intl_designator":"2025-063T","name":"STARLINK-33653","alt_names":[],"object_type":"PAYLOAD","status":"ACTIVE","operator":null,"country":"US","launch_date":"2025-03-26","launch_site_code":"AFWTR","launch_vehicle":null,"mission":null,"orbit_class":"UNKNOWN","rcs_meters":null,"size_class":null,"mass_kg":null,"dimensions":null,"purposes":["comms"],"wikipedia_slug":null,"has_3d_model":false,"image_url":null,"decayed_at":null,"tle_current":{"epoch":"2026-05-25T03:14:07.224576Z","epoch_age_seconds":60097,"freshness":"FRESH","line1":"1 63380U 25063T   26145.13480584  .00007031  00000+0  24931-3 0  9999","line2":"2 63380  53.1600  57.3715 0001294  89.7586 270.3563 15.30198827 66411","mean_motion":15.30198827,"eccentricity":0.0001294,"inclination_deg":53.16,"raan_deg":57.3715,"arg_perigee_deg":89.7586,"mean_anomaly_deg":270.3563,"bstar":0.00024931,"rev_number":6641,"period_min":94.105417844501,"perigee_km":474.33174757714,"apogee_km":476.10539599912,"semimajor_km":6853.3555717881,"source":"CELESTRAK","updated_at":"2026-05-25T13:38:19.965404Z"}}}